Flag Weather past 2 weeks in Nagercoil, Tamil Nadu, India

Now
81 °F

Partly cloudy.


Feels Like: 85 °F
Forecast: 77 / 85 °F
Wind: No wind

Location: Thiruvananthapuram

Current Time: Nov 24, 2014 at 10:14:30 PM

Latest Report: Nov 24, 2014 at 9:40 PM


Visibility: 2 mi

Pressure: 29.83 "Hg

Humidity: 79%

Dew point: 73 °F

Location of NagercoilLocation

Historic Weather in Nagercoil — Graph

°F

Nagercoil temperature yesterday

Maximum temperature yesterday: 84 °F (at 11:40 AM)
Minimum temperature yesterday: 77 °F (at 12:10 AM)
Average temperature yesterday: 80 °F

Past Weeks' High & Low Weather Summary

 TemperatureHumidityPressure
High90 °F (Nov 10, 1:40 PM)94% (Nov 13, 5:40 AM)29.92 "Hg (Nov 13, 5:40 AM)
Low77 °F (Nov 10, 2:40 AM)59% (Nov 20, 11:40 AM)29.68 "Hg (Nov 12, 3:40 PM)
Average82 °F80%29.81 "Hg
* Reported Nov 9 8:40 PM — Nov 24 9:10 PM, Nagercoil, Weather by CustomWeather, © 2014

Note: Actual official high and low records may vary slightly from our data, if they occured in-between our weather recording intervals... More about our weather records

Advertising

Nagercoil weather history for previous 24 hours

 ConditionsComfort  
Time TempWeatherWind HumidityBarometerVisibility
9:10 PM
Nov 24
81 °FPartly cloudy.No wind79%29.83 "Hg2 mi
8:40 PM81 °FPartly cloudy.No wind79%29.83 "Hg2 mi
8:10 PM81 °FPartly cloudy.No wind79%29.80 "Hg2 mi
7:40 PM81 °FPartly cloudy.3 mph79%29.80 "Hg2 mi
7:10 PM82 °FPartly cloudy.3 mph74%29.80 "Hg2 mi
6:40 PM82 °FPartly cloudy.No wind74%29.80 "Hg2 mi
6:10 PM84 °FBroken clouds.No wind70%29.77 "Hg2 mi
5:40 PM84 °FBroken clouds.No wind70%29.77 "Hg3 mi
5:10 PM86 °FBroken clouds.3 mph70%29.77 "Hg3 mi
4:40 PM88 °FBroken clouds.5 mph66%29.77 "Hg3 mi
4:10 PM88 °FBroken clouds.3 mph66%29.77 "Hg3 mi
3:40 PM88 °FBroken clouds.5 mph66%29.77 "Hg3 mi
3:10 PM88 °FBroken clouds.No wind66%29.77 "Hg3 mi
2:40 PM88 °FBroken clouds.No wind66%29.77 "Hg3 mi
1:40 PM88 °FBroken clouds.3 mph66%29.80 "Hg3 mi
1:10 PM86 °FBroken clouds.5 mph70%29.80 "Hg3 mi
12:40 PM86 °FBroken clouds.3 mph70%29.80 "Hg3 mi
12:10 PM84 °FBroken clouds.3 mph74%29.83 "Hg3 mi
10:40 AM84 °FBroken clouds.No wind74%29.86 "Hg2 mi
10:10 AM82 °FBroken clouds.No wind79%29.86 "Hg2 mi
9:40 AM82 °FBroken clouds.3 mph79%29.86 "Hg2 mi
8:40 AM81 °FBroken clouds.No wind84%29.86 "Hg2 mi
8:10 AM79 °FMore clouds than sun.No wind89%29.83 "Hg2 mi
7:10 AM79 °FBroken clouds.No wind89%29.80 "Hg2 mi
6:10 AM79 °FPartly cloudy.No wind89%29.80 "Hg2 mi
5:40 AM77 °FPartly cloudy.No wind94%29.77 "Hg2 mi
5:10 AM77 °FPartly cloudy.No wind94%29.77 "Hg2 mi
3:40 AM79 °FPartly cloudy.No wind84%29.74 "Hg2 mi
3:10 AM79 °FPartly cloudy.No wind84%29.74 "Hg2 mi
2:40 AM79 °FPartly cloudy.No wind84%29.74 "Hg2 mi
2:10 AM79 °FPartly cloudy.No wind84%29.77 "Hg2 mi
1:40 AM79 °FPartly cloudy.No wind84%29.77 "Hg2 mi
1:10 AM79 °FPartly cloudy.No wind84%29.77 "Hg2 mi
12:40 AM79 °FPartly cloudy.No wind84%29.80 "Hg2 mi
12:10 AM79 °FPassing clouds.No wind89%29.80 "Hg2 mi
11:40 PM
Nov 23
79 °FPassing clouds.No wind89%29.80 "Hg2 mi
11:10 PM79 °FPassing clouds.No wind89%29.80 "Hg2 mi
Weather by CustomWeather, © 2014

See weather overviewHow to use our weather pages